Weather Roundup
Issued by NWS Springfield, MO

Home | Current Version | Previous Version | Text Only | Print | Product List | Glossary On
Versions: 1 2 3 4 5 6 7 8 9 10 11 12 13 14 15 16 17 18 19 20 21 22 23 24 25 26 27 28 29 30 31 32 33 34 35 36 37 38 39 40 41 42 43 44 45 46 47 48 49 50
000
NZUS99 KSGF 251507
HRRSGF

HOURLY WEATHER
NATIONAL WEATHER SERVICE SPRINGFIELD MO
900 AM CST THU DEC 25 2014

......SGF CWA......

CITY           SKY/WX    TMP DP  RH WIND       PRES   REMARKS
SPRINGFIELD    MOSUNNY   35  29  78 S15       29.94R WCI  25
JOPLIN         MOSUNNY   40  28  62 S15G23    29.91R WCI  32
WEST PLAINS    SUNNY     35  29  78 S7        30.02S WCI  29
ROLLA          SUNNY     35  29  78 S14       29.97R WCI  26
OSAGE BEACH    SUNNY     34  28  80 S9        29.96R WCI  26
BRANSON        MOSUNNY   36  30  80 S7        29.99R WCI  30

......SURROUNDING SGF CWA......

CITY           SKY/WX    TMP DP  RH WIND       PRES   REMARKS
CHANUTE        SUNNY     38  29  70 S18       29.83S WCI  28
PARSONS        SUNNY     38  29  70 S13G20    29.85F WCI  30
COFFEYVILLE    SUNNY     39  29  67 S23G33    29.85F WCI  28
EMPORIA        MOSUNNY   33  27  78 S23       29.72S WCI  21
GROVE OK       SUNNY     43  32  65 S16G25    29.95R
ROGERS AR      SUNNY     39  30  70 S16G23    29.97R WCI  30
SILOAM SPRINGS SUNNY     37  27  65 S14       29.98R WCI  29
HARRISON AR    SUNNY     38  31  76 S12       29.99R WCI  30
NEAR YELLVILLE SUNNY     37  28  70 S6        30.04R WCI  33

......KANSAS AND MISSOURI......

CITY           SKY/WX    TMP DP  RH WIND       PRES   REMARKS
KANSAS CTY INT PTSUNNY   37  28  70 S17       29.76F WCI  27
DOWNTOWN KC    SUNNY     38  28  67 S15G22    29.80F WCI  29
COLUMBIA       SUNNY     34  30  85 S14       29.94R WCI  25
SEDALIA        SUNNY     37  29  72 S13       29.91R WCI  29
ST JOSEPH      PTSUNNY   36  28  73 S15       29.75F WCI  27
ST LOUIS       MOSUNNY   38  30  73 S10       30.03R WCI  31
SPIRIT OF STL  SUNNY     37  30  75 S8        30.02R WCI  31
KIRKSVILLE     PTSUNNY   33  30  88 S13       29.87R WCI  24
WICHITA        MOSUNNY   41  25  53 S20G32    29.66F
TOPEKA         SUNNY     38  27  64 S12       29.74F WCI  30
OLATHE         SUNNY     35  28  75 S16G25    29.79F WCI  25

......TENNESSEE......

CITY           SKY/WX    TMP DP  RH WIND       PRES   REMARKS
MEMPHIS        MOSUNNY   41  34  76 SW9       30.19R
NASHVILLE      CLOUDY    41  32  70 W7        30.20R

......ARKANSAS.......

CITY           SKY/WX    TMP DP  RH WIND       PRES   REMARKS
FAYETTEVILLE   SUNNY     37  30  75 S8        30.00R WCI  31
FT SMITH       SUNNY     33  30  88 NE6       30.05R WCI  28
LITTLE ROCK    MOSUNNY   38  32  79 S8        30.14S WCI  32

......OKLAHOMA.......

CITY           SKY/WX    TMP DP  RH WIND       PRES   REMARKS
TULSA          PTSUNNY   40  28  62 S21G32    29.88F WCI  30
PONCA CITY     SUNNY     42  25  50 S16G25    29.75R
MCALESTER      SUNNY     42  29  59 S13G25    29.98S
OKLAHOMA CITY  PTSUNNY   44  25  47 S26G33    29.81S

......IOWA............

CITY           SKY/WX    TMP DP  RH WIND       PRES   REMARKS
DES MOINES     CLOUDY    35  27  72 S12       29.75R WCI  27
QUAD CITIES    SUNNY     35  28  75 S13       29.89R WCI  26

......ILLINOIS........

CITY           SKY/WX    TMP DP  RH WIND       PRES   REMARKS
QUINCY         SUNNY     35  29  78 S14       29.93R WCI  26
CHICAGO        CLOUDY    34  27  75 SW16G22   29.91R WCI  24




USA.gov is the U.S. government's official web portal to all federal, state and local government web resources and services.